Theta_e
319 311 311 309 298 293 288 291 293 296 295 297 303 304 302 302 301 294 316 334 343 346 349 349 351 353 353 352 352 352 351 351 350 349 347 345 343 342 341 339 337 335 334 335 338 339 340 341 341
318 314 310 300 292 286 288 291 295 297 299 302 302 301 303 303 311 315 318 339 344 347 349 348 348 352 353 352 351 351 350 351 349 348 346 343 341 340 339 337 335 334 333 334 335 337 339 338 339
314 311 302 295 287 287 288 292 295 297 300 298 299 304 305 307 311 313 321 338 344 345 346 346 347 351 352 351 350 350 350 350 348 347 345 343 341 339 337 335 333 332 331 332 334 335 336 337 338
306 305 300 291 288 289 293 295 297 298 297 301 302 302 309 313 314 317 326 342 341 345 346 343 347 350 350 350 349 349 350 349 347 346 345 342 340 338 336 334 332 329 329 330 331 332 334 335 336
303 298 292 288 287 291 291 296 297 297 296 297 299 298 302 312 317 323 328 337 339 343 346 344 345 347 348 349 349 349 348 348 347 346 344 341 339 337 335 332 330 327 326 327 328 328 328 330 328
298 293 288 287 288 291 293 297 297 295 295 299 299 298 300 306 312 313 328 330 339 340 344 345 340 341 344 346 347 347 347 346 345 345 343 341 339 336 334 332 330 326 323 322 322 321 322 323 323
295 290 287 287 289 291 295 296 294 294 295 294 300 297 298 303 304 322 318 321 326 334 341 343 342 340 338 340 341 343 344 344 344 343 343 341 338 336 334 333 330 326 321 319 319 318 318 319 319
296 292 290 289 289 291 295 295 297 296 294 299 298 294 295 300 306 316 314 311 311 313 317 326 339 340 340 339 334 336 339 340 341 339 337 334 333 333 332 330 332 328 324 322 320 318 318 318 317
296 289 287 288 289 292 295 294 296 296 297 296 297 296 298 302 306 310 308 306 307 309 310 311 316 326 334 341 336 332 334 335 334 333 329 328 330 327 326 327 330 329 328 327 324 320 318 315 315
293 288 290 291 291 293 295 295 297 294 294 294 295 298 300 301 306 306 302 302 302 304 309 310 311 313 320 335 338 335 335 335 334 332 330 329 328 327 327 323 326 325 326 327 324 321 317 312 306
293 289 292 292 296 296 296 294 296 294 291 295 295 297 298 298 299 300 299 300 301 302 307 309 311 312 313 323 335 336 334 334 335 331 330 330 326 323 322 321 321 317 316 315 315 313 311 309 307
290 295 294 297 297 296 295 296 294 294 294 297 297 298 297 297 298 298 299 301 303 303 304 309 311 312 313 326 328 329 330 330 331 331 332 327 325 322 322 321 319 317 317 313 311 311 311 311 310
292 294 296 297 297 296 297 295 295 294 295 296 297 298 296 296 297 298 300 302 302 302 303 307 310 312 315 325 322 321 320 320 321 324 330 328 326 323 321 317 316 314 313 310 309 310 311 309 308
295 295 295 297 297 297 296 294 295 293 294 295 296 295 295 296 297 297 300 300 301 303 302 306 310 315 319 316 316 314 315 315 315 315 318 327 325 319 315 313 312 312 311 309 309 306 307 306 304
296 292 294 295 296 296 296 293 293 294 294 294 294 293 294 295 296 296 299 299 300 301 301 304 308 310 310 310 310 310 310 310 310 311 312 314 313 312 310 309 307 307 308 307 305 301 301 300 300
292 290 287 293 295 295 295 289 295 294 293 292 292 291 293 294 295 296 298 298 299 300 301 301 305 305 305 305 305 306 307 306 306 307 308 308 308 308 306 305 304 304 304 302 297 296 293 294 296
289 285 286 291 295 293 292 290 293 293 293 292 291 291 292 292 293 295 297 297 299 299 299 298 299 300 301 301 302 302 301 303 303 303 303 303 303 303 301 299 298 297 296 294 292 290 289 289 293
285 285 287 288 292 291 290 291 292 293 292 292 291 290 291 292 292 295 295 296 298 298 297 296 297 299 300 299 297 296 295 295 296 297 297 297 296 295 294 293 293 294 292 291 289 287 287 286 290
289 287 287 289 294 291 290 292 294 292 291 290 290 290 291 292 292 295 294 295 296 296 295 295 296 298 298 296 295 294 292 292 292 293 293 293 293 292 290 289 289 288 287 286 287 286 284 284 285
289 287 288 290 293 291 291 290 293 291 292 294 294 292 292 290 291 293 293 293 295 295 297 296 298 298 299 298 294 292 291 290 291 291 291 291 291 290 288 287 286 285 285 284 283 284 283 283 283
289 287 287 289 290 289 287 288 290 292 294 294 295 296 294 292 291 292 292 292 292 294 298 298 298 298 297 293 292 290 290 289 289 288 288 288 289 287 286 285 285 284 284 282 282 282 282 280 282
287 292 292 290 287 284 288 283 287 290 291 292 295 294 293 291 292 293 292 291 292 293 298 298 297 295 293 293 291 291 289 287 287 287 287 286 285 285 285 285 284 283 283 282 282 282 281 281 279
290 292 290 288 285 283 284 282 285 289 289 292 295 292 290 291 291 292 292 293 293 296 298 297 294 293 293 292 292 289 287 286 286 285 283 283 284 284 284 284 283 282 282 280 281 281 280 281 279
293 290 288 286 284 279 285 284 289 289 292 296 297 291 291 290 291 292 292 293 293 297 297 295 293 292 293 291 289 288 286 285 283 283 282 282 282 282 282 282 282 282 281 280 280 280 280 280 279
290 286 280 278 277 279 284 283 289 291 292 294 293 290 289 290 290 290 289 290 291 294 294 294 293 291 290 289 288 287 285 284 283 282 282 281 281 281 280 281 281 281 281 280 280 280 280 279 279
287 287 281 273 275 278 282 280 286 291 293 290 292 291 288 288 290 290 290 290 290 291 291 292 290 289 288 288 286 286 284 284 283 283 282 282 281 281 280 280 280 280 281 280 280 279 278 277 277
286 285 290 283 272 275 282 285 290 291 290 290 289 288 287 288 289 289 289 289 290 289 289 290 289 288 288 287 286 285 284 284 283 282 282 281 281 281 280 280 279 279 279 278 278 277 277 276 276
288 290 282 284 274 274 280 281 285 289 289 289 287 286 286 288 287 288 288 288 288 288 288 289 289 287 287 286 285 285 284 283 283 282 281 281 280 280 279 278 278 278 277 277 277 276 276 275 275
286 285 286 288 283 276 274 282 288 290 291 290 288 288 287 288 286 287 287 287 287 285 286 288 288 286 285 285 285 284 283 283 282 281 281 280 280 279 278 278 277 277 276 276 275 274 274 274 274
290 289 290 285 278 280 279 285 288 289 290 290 289 289 288 288 287 286 286 285 285 284 284 285 286 285 285 285 284 283 282 282 281 280 279 280 279 279 278 278 277 276 276 275 275 274 274 274 274
Wind_Speed
6 6 2 5 6 7 2 2 1 1 3 3 4 11 9 4 2 4 2 1 11 10 7 7 10 11 11 11 11 11 10 13 14 16 16 16 15 16 15 15 14 14 15 14 14 12 12 13 13
4 3 5 3 7 5 4 1 4 2 5 8 7 4 8 4 2 2 3 5 10 10 8 7 10 10 11 10 9 9 9 12 13 15 16 15 15 14 14 15 14 15 15 14 14 13 13 12 14
3 2 5 6 4 5 5 3 5 4 9 4 5 6 4 1 3 1 1 9 8 9 7 7 9 10 11 10 9 9 9 11 12 13 15 14 15 14 15 15 14 14 14 14 14 14 13 13 13
3 5 5 7 4 1 8 6 5 5 3 7 5 7 3 0 1 3 3 11 7 11 8 9 10 9 10 12 9 9 10 11 13 13 14 14 15 14 14 14 14 14 14 14 14 13 13 13 14
5 4 5 4 1 2 2 5 6 4 3 4 1 5 3 5 5 5 7 8 8 8 9 9 11 9 10 11 10 10 10 12 13 13 14 14 14 14 14 13 14 14 14 14 14 14 13 14 15
5 4 5 2 2 2 2 6 6 3 3 4 7 5 4 4 3 7 6 5 5 7 8 8 9 9 9 10 10 11 11 12 13 14 15 15 14 14 13 13 14 14 14 14 14 14 14 15 16
7 5 5 4 5 2 4 3 4 5 5 3 9 6 2 3 5 5 8 8 8 7 6 6 6 8 8 8 8 9 10 12 14 14 14 14 13 14 14 13 14 14 14 14 14 14 15 16 16
6 5 2 2 5 4 3 2 6 5 3 4 2 7 6 5 5 6 8 8 8 7 7 6 4 4 5 5 9 9 11 12 13 13 13 11 11 11 11 10 12 13 13 13 12 13 14 14 15
4 6 1 1 5 4 3 4 0 3 7 4 4 3 3 6 7 5 5 5 5 5 6 5 5 4 2 3 6 8 11 13 13 12 11 10 6 7 5 8 9 11 12 12 13 13 13 13 14
6 4 6 2 3 4 4 4 7 4 4 4 3 3 4 5 7 7 6 5 3 4 5 5 5 4 4 2 3 5 6 5 6 7 8 5 6 5 5 8 10 9 9 10 13 13 13 9 5
3 5 4 1 2 3 5 1 4 8 3 7 9 9 5 5 7 8 5 4 4 2 3 6 6 4 3 2 1 2 3 4 4 7 6 6 6 5 3 4 3 3 6 4 5 5 4 6 5
2 1 3 4 2 2 4 1 3 5 5 4 9 8 6 8 7 7 7 6 4 3 2 4 6 5 4 1 2 3 4 4 3 5 7 6 4 5 3 3 3 4 3 5 4 3 5 6 6
2 1 1 1 4 4 1 4 6 5 5 6 9 8 9 8 7 5 6 5 5 3 1 2 4 4 1 4 4 5 5 4 4 4 5 6 5 5 5 5 4 4 4 4 4 4 5 5 6
3 1 3 3 5 3 5 3 3 1 7 8 9 9 8 9 9 5 6 5 5 4 2 0 3 2 5 5 6 5 5 4 5 5 4 7 6 6 6 5 4 4 3 3 4 5 5 5 5
1 3 5 7 5 5 4 7 11 6 10 10 9 8 9 9 9 9 7 6 7 3 2 3 4 5 6 7 6 5 4 5 6 6 8 9 9 8 7 6 5 3 3 5 4 6 6 6 5
2 4 3 4 7 3 7 11 5 9 15 12 10 9 9 9 9 7 8 6 6 5 5 3 4 6 6 7 6 5 5 6 6 6 7 10 10 9 8 6 5 4 4 5 6 5 5 5 5
5 4 5 9 7 5 5 9 3 5 8 9 10 10 9 8 7 6 7 7 7 6 6 5 5 7 8 7 7 7 7 7 6 6 7 9 9 9 8 6 4 5 6 6 5 6 4 4 4
6 5 5 7 4 3 5 14 6 6 8 12 10 10 11 11 12 9 8 7 7 6 6 6 5 8 8 7 7 7 7 7 6 6 6 9 8 9 8 7 5 6 6 6 5 6 6 4 3
4 4 5 3 4 4 9 15 15 10 8 10 11 12 14 15 8 9 7 7 7 6 7 7 9 9 7 6 6 5 5 6 7 7 8 8 9 9 9 6 7 6 7 5 3 4 6 7 5
5 4 11 8 6 8 10 16 12 7 11 16 18 17 17 9 11 9 9 8 8 8 9 7 10 10 8 5 6 5 5 6 6 6 8 8 11 9 9 7 7 6 7 7 6 5 3 5 6
7 8 5 9 4 4 6 12 12 10 14 12 18 18 14 19 19 14 12 11 8 9 11 11 11 11 8 9 10 9 9 6 6 6 7 7 10 8 9 8 8 8 6 7 5 5 5 4 6
6 8 6 6 1 7 3 17 6 8 14 12 22 16 14 15 15 15 14 12 11 9 9 11 11 10 10 12 10 13 9 11 4 6 6 8 8 9 8 8 8 8 5 7 6 5 4 4 4
7 4 4 2 3 3 4 6 3 6 7 13 19 11 12 17 20 18 16 14 12 11 12 11 11 11 12 10 9 9 10 9 8 7 9 9 7 7 8 8 8 9 7 6 7 7 8 6 5
6 6 7 5 2 8 11 9 24 9 16 15 13 7 16 16 17 14 12 12 11 12 12 12 12 12 11 10 9 11 16 15 12 10 9 7 6 6 7 8 8 7 7 7 7 7 9 7 6
5 7 2 4 1 10 4 10 21 9 8 10 9 9 10 14 16 15 16 14 13 15 14 12 13 12 12 12 11 12 14 13 14 12 9 10 7 5 5 6 7 6 6 6 6 8 7 5 5
8 9 8 8 6 6 2 12 9 7 9 6 8 7 12 14 13 15 16 15 15 14 13 14 13 12 12 12 12 11 11 8 8 8 9 7 7 7 6 7 7 7 7 7 7 6 5 5 5
6 8 7 3 2 2 7 9 11 13 10 6 6 7 11 13 14 16 15 15 15 13 13 14 14 12 13 14 13 11 11 12 10 10 8 7 8 7 8 7 8 7 8 8 6 5 5 6 5
7 6 3 1 2 7 7 9 13 8 11 8 6 7 8 9 10 12 13 14 13 13 12 14 14 16 15 15 14 13 13 11 12 11 12 11 8 9 9 8 8 7 7 7 6 6 5 6 3
4 4 4 5 6 6 4 9 8 9 9 9 9 11 12 13 13 13 12 12 13 11 11 14 14 14 14 14 13 13 12 12 12 11 11 10 10 10 10 9 8 8 7 6 7 7 6 6 5
3 6 7 6 6 6 2 18 2 6 6 7 7 8 9 12 13 12 12 12 12 12 11 12 12 13 13 12 12 12 12 12 12 12 11 11 12 9 10 9 9 8 7 7 7 7 5 6 5
Wind_Direction
340 317 88 43 60 65 1 5 167 66 55 7 35 94 112 70 59 163 295 104 133 137 140 134 128 123 116 116 119 120 120 113 112 108 98 88 80 71 69 69 67 64 62 67 66 64 61 52 45
336 339 44 83 85 71 281 238 124 146 121 133 86 61 48 52 51 111 96 170 136 140 140 142 140 130 122 119 119 116 122 121 114 108 102 93 84 83 80 73 66 63 63 64 66 64 64 61 46
324 50 79 91 114 153 171 214 170 165 160 159 94 59 89 4 308 169 173 168 141 141 140 145 147 142 132 121 120 115 113 120 120 118 105 99 95 89 83 78 76 72 68 67 64 64 61 57 49
50 13 32 84 119 220 162 196 198 138 105 84 119 69 45 328 255 205 123 152 146 149 145 156 153 154 148 133 127 121 124 128 130 123 115 108 100 92 87 85 80 75 72 71 70 69 66 59 54
39 60 56 85 37 126 175 189 175 147 106 67 134 147 93 346 330 17 111 139 143 142 151 159 154 153 147 135 135 130 125 127 128 129 120 113 103 97 95 92 86 80 76 73 69 65 62 60 57
42 90 61 142 195 218 239 160 127 126 121 165 76 94 183 316 4 338 73 89 119 142 148 145 146 146 148 146 145 143 143 137 136 132 130 124 115 114 105 94 87 84 82 76 71 64 59 58 56
107 83 172 141 173 193 209 130 107 149 129 69 143 112 245 293 26 73 77 66 60 48 92 127 148 156 158 157 153 152 146 140 136 134 135 128 131 121 112 103 94 89 88 83 75 69 63 58 57
104 92 94 155 184 212 242 73 124 138 113 125 68 167 189 222 107 100 76 66 63 50 54 45 54 106 159 171 168 165 151 144 140 136 138 134 120 115 118 108 106 98 93 91 86 76 67 62 56
100 64 127 215 160 204 175 134 41 75 95 54 6 132 180 139 122 103 73 54 48 55 52 38 44 38 5 173 187 175 158 150 147 143 135 123 122 117 105 108 101 105 99 83 79 75 64 54 45
81 96 203 190 181 202 181 165 162 121 114 53 40 17 70 72 131 129 117 106 66 43 23 51 41 18 349 353 183 172 154 153 150 148 142 124 125 122 127 104 84 59 48 67 71 71 67 59 49
147 159 210 210 178 148 161 123 192 123 229 192 188 178 144 112 114 129 129 134 122 69 22 6 2 353 346 345 358 128 141 145 145 139 132 131 120 109 94 102 100 84 54 37 60 61 62 68 64
90 267 200 190 153 98 168 201 205 182 204 155 167 153 143 146 149 150 150 149 135 100 28 1 350 328 335 339 64 65 98 105 114 148 130 132 125 112 122 101 85 83 67 70 50 55 55 57 59
158 299 257 126 159 174 158 218 217 217 158 121 128 140 155 159 159 153 143 128 138 129 77 8 6 13 34 87 76 70 73 80 86 87 138 143 137 123 107 73 63 66 78 66 56 60 62 51 49
169 186 284 269 239 225 185 223 168 211 153 153 152 164 169 169 173 144 155 155 153 150 137 359 83 108 114 94 89 81 79 77 76 69 45 122 117 100 89 90 74 63 69 74 68 55 51 47 46
107 314 319 226 209 228 138 287 233 161 162 173 183 181 181 186 174 181 180 169 167 164 145 118 99 78 83 90 84 84 86 87 80 73 68 78 84 98 102 94 84 57 57 66 68 63 53 53 45
19 49 337 289 141 243 130 262 261 169 165 191 195 197 194 196 188 176 168 159 165 149 147 109 107 97 92 99 98 99 96 89 88 87 86 86 94 100 100 101 87 68 63 72 57 46 58 54 60
3 243 220 309 193 140 167 261 276 164 179 197 201 204 204 197 194 177 171 163 165 156 146 132 114 111 106 102 100 93 89 88 87 92 96 97 91 87 92 81 65 67 71 59 63 54 60 49 54
202 221 246 235 210 153 221 260 251 202 203 218 210 208 207 201 199 174 167 160 152 152 144 135 123 123 118 108 98 85 74 72 77 80 84 95 91 90 90 87 76 77 85 71 68 81 61 67 63
159 197 247 239 215 172 228 242 254 208 232 236 229 217 215 210 174 164 164 154 146 150 152 155 141 139 135 125 116 94 95 91 76 73 75 82 89 84 86 83 79 71 79 71 55 84 69 39 358
229 234 261 296 233 184 253 247 244 197 228 222 225 222 212 171 169 167 164 165 168 163 162 160 151 149 148 132 113 114 114 88 88 85 76 74 84 87 89 89 81 70 77 59 46 44 76 60 14
232 211 236 227 320 241 307 267 245 241 228 234 234 230 205 192 176 172 174 175 169 169 170 165 158 156 146 127 120 111 107 104 105 91 86 77 86 81 87 88 90 82 78 73 52 52 73 109 35
229 204 209 242 257 264 124 289 215 230 235 227 242 222 198 178 176 175 173 175 174 176 164 163 158 148 139 141 141 146 140 135 119 108 106 92 81 86 88 90 89 86 81 78 72 51 66 101 100
229 180 209 260 241 341 185 292 136 200 244 247 244 221 187 185 178 177 176 170 173 167 166 162 151 148 146 145 150 139 122 112 117 113 108 94 80 76 82 84 86 85 81 74 80 68 62 51 72
135 77 44 50 43 268 192 183 283 213 222 247 255 185 187 182 178 169 162 155 159 167 165 160 152 152 150 142 143 142 139 140 136 134 125 113 103 92 77 84 88 88 91 85 82 75 72 73 75
118 106 306 327 333 247 285 215 252 305 280 233 253 210 189 175 168 158 158 164 162 169 169 161 159 154 147 146 145 147 142 143 138 137 133 131 123 111 101 103 100 99 104 100 95 85 77 72 82
194 158 162 214 215 275 330 243 252 240 274 282 256 208 166 168 168 166 166 163 166 169 168 164 161 151 149 146 142 141 137 141 138 139 137 129 129 132 136 122 112 112 107 97 88 88 86 82 81
192 205 186 85 103 350 227 289 277 251 275 269 250 157 178 169 168 169 165 167 167 167 169 163 158 153 156 153 147 148 145 148 146 137 131 133 133 134 127 120 117 113 107 100 99 101 103 93 88
158 175 94 59 198 247 274 269 237 270 248 245 221 200 176 174 165 167 171 170 169 168 167 162 162 162 158 156 157 155 153 149 145 142 141 144 142 137 138 130 122 118 113 119 120 108 98 96 87
142 199 200 137 159 197 282 255 216 240 257 238 217 191 184 179 175 174 175 174 169 163 166 166 165 158 158 158 157 153 151 149 146 146 146 147 145 149 142 134 131 131 132 133 117 107 110 104 101
344 201 178 171 223 236 143 263 179 240 268 210 220 185 178 176 175 176 172 167 166 168 168 169 166 163 162 156 148 151 148 149 149 153 155 156 153 150 147 143 144 145 145 141 128 115 111 109 107